Regional Weather Roundup
Issued by NWS

Home | Current Version | Previous Version | Text Only | Print | Product List | Glossary Off
Versions: 1 2 3 4 5 6 7 8 9 10 11 12 13 14 15 16 17 18 19 20 21 22 23 24 25 26 27 28 29 30 31 32 33 34 35 36 37 38 39 40 41 42 43 44 45 46 47 48 49 50

000
ASUS43 KMPX 070401
RWRMN
WEATHER ROUNDUP FOR MINNESOTA
NATIONAL WEATHER SERVICE TWIN CITIES/CHANHASSEN MN
1000 PM CST FRI MAR 06 2015


NOTE: "FAIR" INDICATES FEW OR NO CLOUDS BELOW 12,000 FEET WITH NO
SIGNIFICANT WEATHER AND/OR OBSTRUCTIONS TO VISIBILITY. N/A MEANS
CURRENT SKY AND/OR WEATHER CONDITIONS ARE NOT AVAILABLE.

MNZ060>063-068>070-070500-
   Twin Cities Metro

CITY           SKY/WX    TMP DP  RH WIND       PRES   REMARKS
TWIN CITIES    MOCLDY    28  17  63 W6        30.07F WCI  22
ST PAUL        CLEAR     29  18  63 SW5       30.08F WCI  24
BLAINE         PTCLDY    28  19  69 SW5       30.06R WCI  23
LAKEVILLE      PTCLDY    25  19  80 SW3       30.07F
EDEN PRAIRIE   PTCLDY    27  18  69 SW5       30.06F WCI  22
SOUTH ST PAUL  PTCLDY    29  19  66 W5        30.07S WCI  23
LAKE ELMO      FAIR      28  19  69 SW6       30.06F WCI  22
$$
MNZ001>005-007-008-013>017-022>024-027-028-070500-
   Northwest Minnesota

CITY           SKY/WX    TMP DP  RH WIND       PRES   REMARKS
BEMIDJI        CLOUDY    29  18  62 SW9       29.88F WCI  21
HALLOCK        CLOUDY    32  30  93 S8        29.84S WCI  25
ROSEAU         LGT SNOW  30  27  86 SW14      29.82F WCI  20
WARROAD        LGT SNOW  28  25  86 SW10G17   29.81F WCI  19
THIEF RVR FALL CLOUDY    30  28  93 S10       29.86F WCI  21
CROOKSTON      MIX PCPN  34  27  75 S15       29.86F WCI  24
FOSSTON        LGT SNOW  28  25  86 S13       29.88F WCI  18
DETROIT LAKES  MOCLDY    32  23  69 S8        29.91F WCI  25
MOORHEAD       MOCLDY    34  27  75 S12       29.91F WCI  25
PARK RAPIDS    CLOUDY    29  19  66 SW7       29.91F WCI  22
MAHNOMEN       CLOUDY    30  24  76 S10       29.90S WCI  21
$$
MNZ006-009>011-018-025>026-070500-
   North Central Minnesota

CITY           SKY/WX    TMP DP  RH WIND       PRES   REMARKS
BAUDETTE       CLOUDY    28  20  71 SW12G22   29.81F WCI  18
FLAG ISLAND    LGT SNOW  28  21  74 SW14      29.78S WCI  17
INTL FALLS     CLOUDY    25  11  55 SW9       29.84F WCI  15
WASKISH        CLOUDY    28  18  64 CALM      29.86S
BIG FORK       MOCLDY    23  10  58 S7        29.87F WCI  15
LONGVILLE      CLOUDY    28  16  59 SW6       29.91F WCI  22
GRAND RAPIDS   PTCLDY    28  10  47 SW8       29.90F WCI  20
CRANE LAKE     PTCLDY    21   9  58 S3        29.88F
ORR            MOCLDY    23   7  50 CALM      29.85F
COOK           PTCLDY    25   9  50 S3        29.89F
WALKER         CLOUDY    29  16  58 SW12      29.91S WCI  19
$$
MNZ012-019>021-037-070500-
   Northeast Minnesota

CITY           SKY/WX    TMP DP  RH WIND       PRES   REMARKS
DULUTH         MOCLDY    24   8  50 W7        29.92F WCI  16
ELY            PTCLDY    21   9  58 SW7       29.88F WCI  13
HIBBING        CLOUDY    23   7  50 S5        29.90F WCI  17
EVELETH        PTCLDY    23  10  58 SW5       29.91F WCI  17
DULUTH HARBOR  MOCLDY    25  10  54 S7        29.98S WCI  17
TWO HARBORS    PTCLDY    28  12  50 SW5       29.91F WCI  23
SILVER BAY     PTCLDY    28  10  47 SW5       29.90S WCI  23
GRAND MARAIS     N/A     26   9  48 W6        29.92S WCI  19
G MARAIS ARPRT MOCLDY    19   3  49 W8        29.85S WCI   9
$$
MNZ029>031-032-039>041-046>048-054>057-064-070500-
   West Central Minnesota

CITY           SKY/WX    TMP DP  RH WIND       PRES   REMARKS
FERGUS FALLS   CLOUDY    30  23  74 S10       29.98F WCI  21
WHEATON        PTCLDY    28  25  86 S10       30.00S WCI  19
MORRIS         MOCLDY    28  21  74 S7        29.99S WCI  21
ALEXANDRIA     CLOUDY    28  21  75 SW8       29.98S WCI  20
ELBOW LAKE     CLOUDY    28  24  84 S10       29.97F WCI  19
WADENA         CLOUDY    27  19  74 S7        29.93F WCI  19
GLENWOOD       CLOUDY    27  21  80 S6        30.00R WCI  20
APPLETON       MOCLDY    32  23  69 S6        30.01R WCI  26
BENSON         MOCLDY    28  21  74 SW6       30.01S WCI  22
ORTONVILLE     MOCLDY    30  25  80 S7        29.99S WCI  23
MADISON        MOCLDY    32  27  80 S7        30.00F WCI  26
WILLMAR        FAIR      30  23  74 CALM      30.03F
$$
MNZ033>034-036-042>043-049>051-058-059-070500-
   Central Minnesota

CITY           SKY/WX    TMP DP  RH WIND       PRES   REMARKS
ST CLOUD       CLOUDY    24  18  77 S5        30.02F WCI  18
SAUK CENTRE    CLOUDY    26  21  82 S6        30.00S WCI  19
PAYNESVILLE    MOCLDY    24  19  81 SE6       30.01F WCI  16
AITKIN         MOCLDY    30  16  55 SW5       29.94F WCI  25
PINE RIVER     CLOUDY    28  18  64 SW5       29.97F WCI  23
BRAINERD       CLOUDY    27  17  66 S7        29.95F WCI  19
STAPLES        CLOUDY    27  19  74 S8        29.94F WCI  18
LONG PRAIRIE   CLOUDY    27  21  80 S5        29.99S WCI  21
LITTLE FALLS   MOCLDY    27  19  74 S5        29.99F WCI  21
LITCHFIELD     MOCLDY    27  23  86 CALM      30.04F
BUFFALO        MOCLDY    27  18  71 S3        30.06S
MAPLE LAKE     MOCLDY    28  21  77 SW6       30.04F WCI  21
$$
MNZ037-044-045-052-053-070500-
   East Central Minnesota

CITY           SKY/WX    TMP DP  RH WIND       PRES   REMARKS
PRINCETON      CLOUDY    28  18  64 CALM      30.02F
MORA           MOCLDY    27  14  59 SW3       30.02F
CAMBRIDGE      MOCLDY    28  18  64 SW3       30.01F
RUSH CITY      MOCLDY    27  16  62 SW3       30.03S
MOOSE LAKE     CLOUDY    27  12  54 CALM      29.96S
HINCKLEY       MOCLDY    28  18  64 SW7       30.00S WCI  21
CLOQUET        MOCLDY    25   7  46 SW5       29.94S WCI  19
MCGREGOR       CLOUDY    28  16  59 SW6       29.95F WCI  22
$$
MNZ071>073-080-081-089-090-097-098-070500-
   Southwest Minnesota

CITY           SKY/WX    TMP DP  RH WIND       PRES   REMARKS
MONTEVIDEO     MOCLDY    30  25  80 S3        30.02F
GRANITE FALLS  PTCLDY    29  24  82 SE12      30.03F WCI  19
CANBY          CLOUDY    35  25  65 SW7       30.01F WCI  29
MARSHALL       MOCLDY    30  23  74 S10       30.04F WCI  21
REDWOOD FALLS  CLOUDY    29  24  82 SE6       30.05F WCI  23
OLIVIA         PTCLDY    28  23  80 S7        30.02F WCI  21
PIPESTONE      CLOUDY    34  27  75 CALM      30.05S
WINDOM         MOCLDY    30  27  86 CALM      30.07S
WORTHINGTON    CLOUDY    34  25  69 SW6       30.08F WCI  29
JACKSON        CLOUDY    32  28  86 S6        30.08S WCI  26
TRACY          MOCLDY    34  27  75 S3        30.03F
SLAYTON        CLOUDY    33  26  75 CALM      30.06S
$$
MNZ065>067-074>077-082>085-091>093-070500-
   South Central Minnesota

CITY           SKY/WX    TMP DP  RH WIND       PRES   REMARKS
MANKATO        PTCLDY    30  21  69 CALM      30.09R
NEW ULM        CLOUDY    27  21  80 S3        30.08F
ST JAMES       MOCLDY    30  27  86 CALM      30.09F
FAIRMONT       MOCLDY    30  25  80 CALM      30.08S
GLENCOE        MOCLDY    29  25  84 CALM      30.06F
FARIBAULT      PTCLDY    27  21  80 SW3       30.09S
OWATONNA       CLEAR     27  21  80 SW3       30.08S
WASECA         CLEAR     27  23  86 CALM      30.09S
ALBERT LEA     CLEAR     28  21  74 W3        30.08S
$$
MNZ078>079-086>088-094>096-070500-
   Southeast Minnesota

CITY           SKY/WX    TMP DP  RH WIND       PRES   REMARKS
ROCHESTER      CLEAR     24  18  77 W9        30.07S WCI  14
RED WING       CLEAR     23  16  74 W3        30.07F
STANTON        CLEAR     28  21  75 SW5       30.06F WCI  23
DODGE CENTER   CLEAR     27  21  80 W7        30.06F WCI  19
WINONA         CLEAR     28  19  69 NW7       30.09R WCI  21
AUSTIN         CLEAR     28  21  74 W3        30.08S
PRESTON        CLEAR     26  19  76 W7        30.08S WCI  18
$$
ABBREVIATIONS USED IN REMARKS
   TC - TEMPERATURES IN CELSIUS
  WCI - WIND CHILL INDEX
   HX - HEAT INDEX
  VSB - VISIBILITY
$$


USA.gov is the U.S. government's official web portal to all federal, state and local government web resources and services.